Change the Weather History Date:

Tuesday, April 2, 2013

  Actual Average Record
Temperature  
Mean Temperature 14 °F -  
Max Temperature 26 °F 42 °F 69 °F (1991)
Min Temperature 1 °F 23 °F -7 °F (1979)
Degree Days  
Heating Degree Days 52    
Moisture  
Dew Point 10 °F    
Average Humidity 82    
Maximum Humidity 100    
Minimum Humidity 27    
Precipitation  
Precipitation 0.00 in - - ()
Sea Level Pressure  
Sea Level Pressure 30.27 in    
Wind  
Wind Speed 5 mph (SSE)    
Max Wind Speed 12 mph    
Max Gust Speed -    
Visibility 10 miles    
Events      
Averages and records for this station are not official NWS values.
T = Trace of Precipitation, MM = Missing Value Source: NWS Daily Summary

Daily Weather History Graph

Daily Weather History Graph

Search for Another Location

Airport or City:

Trip Planner

Search our weather history database for the weather conditions in past years. The results will help you decide how hot, cold, wet, or windy it might be!

Date:

Astronomy

Apr. 02, 2013 Rise Set
Actual Time 7:11 AM CDT 8:07 PM CDT
Civil Twilight 6:39 AM CDT 8:39 PM CDT
Nautical Twilight 6:01 AM CDT 9:17 PM CDT
Astronomical Twilight 5:21 AM CDT 9:57 PM CDT
Moon 2:32 AM CDT (4/2) 11:45 AM CDT (4/2)
Length of Visible Light 13h 59m
Length of Day
12h 56m
Waning Gibbous, 55% of the Moon is Illuminated
Apr 2
Waning Gibbous
Apr 2
Last Quarter
Apr 10
New
Apr 18
First Quarter
Apr 25
Full

Hourly Weather History & Observations

Time (CDT) Temp. Windchill Dew Point Humidity Pressure Visibility Wind Dir Wind Speed Gust Speed Precip Events Conditions
12:15 AM 6.8 °F -2.0 °F 1.4 °F 79% 30.23 in 10.0 mi West 4.6 mph - N/A   Clear
12:35 AM 6.8 °F -2.0 °F 3.2 °F 85% 30.22 in 10.0 mi West 4.6 mph - N/A   Clear
12:55 AM 6.8 °F -4.8 °F 1.4 °F 79% 30.22 in 10.0 mi WSW 6.9 mph - N/A   Clear
1:15 AM 5.0 °F -6.9 °F 3.2 °F 92% 30.22 in 10.0 mi West 6.9 mph - N/A   Clear
1:35 AM 6.8 °F -2.0 °F 6.8 °F 100% 30.22 in 10.0 mi West 4.6 mph - N/A   Clear
1:55 AM 3.2 °F -7.8 °F -0.4 °F 85% 30.23 in 10.0 mi West 5.8 mph - N/A   Clear
2:15 AM 1.4 °F - -2.2 °F 85% 30.23 in 10.0 mi Calm Calm - N/A   Clear
2:35 AM 3.2 °F - 3.2 °F 100% 30.23 in 10.0 mi Calm Calm - N/A   Clear
2:55 AM 5.0 °F - 5.0 °F 100% 30.23 in 10.0 mi Calm Calm - N/A   Clear
3:15 AM 3.2 °F - -0.4 °F 85% 30.23 in 10.0 mi Calm Calm - N/A   Clear
3:35 AM 3.2 °F -6.2 °F 1.4 °F 92% 30.23 in 10.0 mi West 4.6 mph - N/A   Clear
3:55 AM 1.4 °F -6.2 °F 1.4 °F 100% 30.23 in 10.0 mi WNW 3.5 mph - N/A   Clear
4:15 AM 1.4 °F - - N/A% 30.23 in 10.0 mi Calm Calm - N/A   Scattered Clouds
4:35 AM 3.2 °F - 1.4 °F 92% 30.24 in 10.0 mi Calm Calm - N/A   Overcast
4:55 AM 5.0 °F -2.1 °F -0.4 °F 78% 30.24 in 10.0 mi NW 3.5 mph - N/A   Overcast
5:15 AM 3.2 °F - -2.2 °F 78% 30.25 in 10.0 mi Calm Calm - N/A   Overcast
5:35 AM 5.0 °F - 5.0 °F 100% 30.25 in 10.0 mi Calm Calm - N/A   Overcast
5:55 AM 5.0 °F -2.1 °F 5.0 °F 100% 30.26 in 10.0 mi WSW 3.5 mph - N/A   Overcast
6:15 AM 3.2 °F - 3.2 °F 100% 30.26 in 10.0 mi Calm Calm - N/A   Overcast
6:35 AM 5.0 °F - 5.0 °F 100% 30.26 in 10.0 mi Calm Calm - N/A   Overcast
6:55 AM 6.8 °F -0.1 °F 5.0 °F 92% 30.27 in 10.0 mi WSW 3.5 mph - N/A   Overcast
7:15 AM 6.8 °F -2.0 °F 3.2 °F 85% 30.27 in 10.0 mi WSW 4.6 mph - N/A   Overcast
7:35 AM 6.8 °F -0.1 °F 3.2 °F 85% 30.28 in 10.0 mi West 3.5 mph - N/A   Overcast
10:15 AM 14.0 °F 8.2 °F -14.8 °F 27% 30.30 in 10.0 mi West 3.5 mph - N/A   Clear
10:55 AM 15.8 °F - -5.8 °F 38% 30.31 in 10.0 mi Calm Calm - N/A   Clear
11:15 AM 15.8 °F 10.2 °F 10.4 °F 79% 30.32 in 10.0 mi North 3.5 mph - N/A   Clear
11:55 AM 17.6 °F 12.3 °F 12.2 °F 79% 30.34 in 10.0 mi NNE 3.5 mph - N/A   Clear
12:15 PM 19.4 °F 14.3 °F 12.2 °F 74% 30.34 in 10.0 mi NNE 3.5 mph - N/A   Clear
12:35 PM 19.4 °F - 14.0 °F 80% 30.33 in 10.0 mi Calm Calm - N/A   Clear
12:55 PM 21.2 °F - 15.8 °F 80% 30.34 in 10.0 mi Calm Calm - N/A   Clear
1:15 PM 21.2 °F 13.6 °F 17.6 °F 86% 30.34 in 10.0 mi ENE 5.8 mph - N/A   Clear
1:35 PM 23.0 °F 15.8 °F 15.8 °F 74% 30.33 in 10.0 mi ENE 5.8 mph - N/A   Clear
1:55 PM 24.8 °F 17.9 °F 17.6 °F 74% 30.33 in 10.0 mi SE 5.8 mph - N/A   Clear
2:15 PM 24.8 °F 16.1 °F 17.6 °F 74% 30.32 in 10.0 mi SE 8.1 mph - N/A   Clear
2:35 PM 24.8 °F 16.1 °F 17.6 °F 74% 30.32 in 10.0 mi SSE 8.1 mph - N/A   Clear
3:55 PM 26.6 °F 19.1 °F 17.6 °F 69% 30.31 in 10.0 mi SE 6.9 mph - N/A   Clear
4:15 PM 26.6 °F 18.2 °F 19.4 °F 74% 30.31 in 10.0 mi SE 8.1 mph - N/A   Clear
4:35 PM 26.6 °F 18.2 °F 17.6 °F 69% 30.31 in 10.0 mi SE 8.1 mph - N/A   Clear
4:55 PM 26.6 °F 19.1 °F 17.6 °F 69% 30.31 in 10.0 mi SE 6.9 mph - N/A   Clear
5:15 PM 26.6 °F 18.2 °F 17.6 °F 69% 30.30 in 10.0 mi SE 8.1 mph - N/A   Clear
5:35 PM 26.6 °F 17.5 °F 19.4 °F 74% 30.30 in 10.0 mi SE 9.2 mph - N/A   Clear
5:55 PM 26.6 °F 16.8 °F 19.4 °F 74% 30.29 in 10.0 mi SE 10.4 mph - N/A   Clear
6:15 PM 26.6 °F 17.5 °F 19.4 °F 74% 30.29 in 10.0 mi SE 9.2 mph - N/A   Clear
6:35 PM 26.6 °F 17.5 °F 17.6 °F 69% 30.29 in 10.0 mi SE 9.2 mph - N/A   Clear
6:55 PM 26.6 °F 17.5 °F 17.6 °F 69% 30.29 in 10.0 mi SE 9.2 mph - N/A   Clear
7:15 PM 24.8 °F 15.3 °F 17.6 °F 74% 30.28 in 10.0 mi SE 9.2 mph - N/A   Clear
7:35 PM 24.8 °F 16.1 °F 19.4 °F 80% 30.28 in 10.0 mi SSE 8.1 mph - N/A   Clear
7:55 PM 23.0 °F 13.9 °F 17.6 °F 80% 30.27 in 10.0 mi SSE 8.1 mph - N/A   Clear
8:15 PM 21.2 °F 11.7 °F 17.6 °F 86% 30.26 in 10.0 mi SSE 8.1 mph - N/A   Clear
8:35 PM 21.2 °F 12.6 °F 15.8 °F 80% 30.26 in 10.0 mi SE 6.9 mph - N/A   Clear
8:55 PM 19.4 °F 9.5 °F 15.8 °F 86% 30.26 in 10.0 mi SSE 8.1 mph - N/A   Clear
9:15 PM 19.4 °F 10.4 °F 15.8 °F 86% 30.26 in 10.0 mi SSE 6.9 mph - N/A   Clear
9:35 PM 19.4 °F 10.4 °F 15.8 °F 86% 30.26 in 10.0 mi SE 6.9 mph - N/A   Clear
9:55 PM 19.4 °F 9.5 °F 15.8 °F 86% 30.26 in 10.0 mi SSE 8.1 mph - N/A   Clear
10:15 PM 17.6 °F 6.4 °F 15.8 °F 93% 30.25 in 10.0 mi SSE 9.2 mph - N/A   Clear
10:35 PM 15.8 °F 5.1 °F 14.0 °F 93% 30.25 in 10.0 mi SE 8.1 mph - N/A   Clear
10:55 PM 15.8 °F 4.2 °F 12.2 °F 86% 30.24 in 10.0 mi SSE 9.2 mph - N/A   Clear
11:15 PM 15.8 °F 4.2 °F 14.0 °F 93% 30.24 in 10.0 mi SSE 9.2 mph - N/A   Clear
11:35 PM 15.8 °F 2.7 °F 12.2 °F 86% 30.23 in 10.0 mi SSE 11.5 mph - N/A   Clear
11:55 PM 15.8 °F 3.4 °F 14.0 °F 93% 30.21 in 10.0 mi SSE 10.4 mph - N/A   Clear